Regional Weather Roundup
Issued by NWS Albany, NY

Home | Current Version | Previous Version | Text Only | Print | Product List | Glossary On
Versions: 1 2 3 4 5 6 7 8 9 10 11 12 13 14 15 16 17 18 19 20 21 22 23 24 25 26 27 28 29 30 31 32 33 34 35 36 37 38 39 40 41 42 43 44 45 46 47 48 49 50
000
ASUS41 KALY 012010
RWRALY

NEW YORK STATE HOURLY WEATHER ROUNDUP
NATIONAL WEATHER SERVICE ALBANY NY
400 PM EDT MON SEP 01 2014

NOTE: "FAIR" INDICATES FEW OR NO CLOUDS BELOW 12,000 FEET WITH NO
SIGNIFICANT WEATHER AND/OR NO OBSTRUCTIONS TO VISIBILITY.

NYZ032-033-038>043-046>054-057>066-NYZ062>081-012100-
EAST


CITY           SKY/WX    TMP DP  RH WIND       PRES   REMARKS
ALBANY         MOSUNNY   87  64  46 N7        29.92F
GLENS FALLS    SUNNY     84  67  56 S9        29.92F
POUGHKEEPSIE   PTSUNNY   86  69  56 SW8       29.92F HX  90
NEWBURGH       PTSUNNY   84  72  65 W9        29.96F
MONTGOMERY     CLOUDY    85  70  60 W3        29.94F
WHITE PLAINS   PTSUNNY   83  69  62 CALM      29.95F
ISLIP          PTSUNNY   84  68  58 SW12G18   29.94F
NEW YORK CITY  PTSUNNY   87  71  58 S12       29.93F HX  93
CENTRAL PARK   PTSUNNY   87  69  54 CALM      29.96F HX  91
$$

NYZ005>009-017-018-044>046-055-056-012100-
CENTRAL


CITY           SKY/WX    TMP DP  RH WIND       PRES   REMARKS
FULTON         MOSUNNY   85  68  56 S8        29.90F
SYRACUSE       PTSUNNY   86  67  52 SW8       29.90F
ROME           MOSUNNY   83  68  60 CALM      29.93F
ELMIRA         MOSUNNY   84  69  60 SW6       29.93F
BINGHAMTON     PTSUNNY   79  69  71 S8        29.99F
MONTICELLO     CLOUDY    79  68  69 SW3       30.01F
$$

NYZ026>034-041>043-012100-
NORTH


CITY           SKY/WX    TMP DP  RH WIND       PRES   REMARKS
WATERTOWN      SUNNY     83  68  60 W6        29.89F
FORT DRUM      NOT AVBL
MASSENA        SUNNY     81  65  58 W12       29.90F
SARANAC LAKE   PTSUNNY   78  59  51 NW6       29.95F
PLATTSBURGH    MOSUNNY   82  65  56 SE9       29.89F
$$

NYZ001>004-010>016-019>021-012100-
WEST


CITY           SKY/WX    TMP DP  RH WIND       PRES   REMARKS
NIAGARA FALLS  PTSUNNY   83  68  60 S15       29.86F
BUFFALO        MOSUNNY   82  68  62 SW8       29.87F
DUNKIRK        CLOUDY    82  67  60 S14G28    29.88F
JAMESTOWN      PTSUNNY   77  68  73 S12       29.95F
WELLSVILLE     PTSUNNY   77  66  68 S8        30.00F
ROCHESTER      PTSUNNY   83  67  58 SW5       29.87F
PENN YAN       MOSUNNY   84  68  58 S12       29.92F
$$

             KEY
       WCI = WIND CHILL INDEX
       VSB = VISIBILITY
       HX  = HEAT INDEX
$$


USA.gov is the U.S. government's official web portal to all federal, state and local government web resources and services.